[[{"header":{"parameterUnit":"m.s-1","parameterCategory":1,"la1":30.2991,"la2":30.254,"lo1":-89.0895,"lo2":-89.0444,"dy":0.0017,"dx":0.0017,"nx":28,"ny":28,"refTime":"2023-10-23T09:00:00:Z","depth":0,"parameterNumber":2,"parameterNumberName":"U-component_of_WINDS"},"data":[0,0,0,0,0,0,0,0,0,0,0,0,0,0,0,0,0,0,0,0,0,0,0,0,0,0,0,0,0,0,0,0,0,0,0,0,0,0,0,0,0,0,0,0,0,0,0,0,0,0,0,0,0,0,0,0,0,0,-2.5791,-2.5791,0,-2.5821,-2.5821,-2.5821,-2.5767,-2.5765,-2.5763,-2.5761,-2.5793,-2.5796,-2.5798,0,0,0,0,0,0,0,0,0,0,0,0,0,-2.5688,-2.569,-2.5791,-2.5791,-2.5791,-2.5821,-2.5821,-2.5821,-2.5767,-2.5765,-2.5763,-2.5761,-2.5792,-2.5795,-2.5799,0,0,0,0,0,0,0,0,0,0,0,0,0,-2.5727,-2.5691,-2.5791,-2.5768,-2.5766,-2.5821,-2.5821,-2.5822,-2.5768,-2.5765,-2.5762,-2.576,-2.5791,-2.5795,-2.5799,-2.5877,0,0,-2.5811,-2.5812,0,0,0,0,0,0,0,0,-2.5725,-2.5731,-2.5771,-2.5769,-2.5768,-2.5787,-2.5796,-2.584,-2.5768,-2.5767,-2.5761,-2.5758,-2.5794,-2.5797,-2.5809,-2.5879,-2.588,-2.5811,-2.5813,-2.5815,-2.5816,0,0,0,0,0,0,0,-2.5722,-2.5729,-2.5803,-2.5771,-2.577,-2.5757,-2.5759,-2.5805,-2.5795,-2.5767,-2.5763,-2.5767,-2.5792,-2.5805,-2.5809,-2.5881,-2.5811,-2.5814,-2.5817,-2.5818,-2.6019,-2.6022,0,0,0,0,0,0,-2.5722,-2.5727,-2.5802,-2.5803,-2.5739,-2.5761,-2.5764,-2.5784,-2.5795,-2.5794,-2.577,-2.5765,-2.58,-2.5805,-2.581,-2.5904,-2.5815,-2.5818,-2.5821,-2.6016,-2.602,-2.6023,0,0,0,0,0,0,-2.572,-2.5729,-2.58,-2.5764,-2.5772,-2.5765,-2.5789,-2.5786,-2.5799,-2.5797,-2.5795,-2.5785,-2.5798,-2.5805,-2.5861,-2.5904,-2.582,-2.5824,-2.6012,-2.6017,-2.6021,-2.6092,0,0,0,0,0,0,-2.5717,-2.5729,-2.5758,-2.5765,-2.5775,-2.5851,-2.5791,-2.5788,-2.5805,-2.5799,-2.581,-2.5809,-2.5796,-2.5856,-2.5865,-2.5908,-2.5827,-2.6009,-2.6015,-2.602,-2.6086,-2.6099,-2.6109,0,0,0,0,0,-2.5714,-2.5776,-2.576,-2.5769,-2.5811,-2.5853,-2.5859,-2.5842,-2.5809,-2.5839,-2.5838,-2.5809,-2.5898,-2.5862,-2.5872,-2.5917,-2.6006,-2.6013,-2.6019,-2.6081,-2.6096,-2.6109,0,0,0,0,0,0,-2.5774,-2.5777,-2.5758,-2.5825,-2.584,-2.5844,-2.5881,-2.5859,-2.5883,-2.5876,-2.5855,-2.5858,-2.592,-2.5924,-2.5884,-2.5995,-2.5946,-2.5956,-2.599,-2.6004,-2.6016,-2.6014,-2.583,0,0,0,0,0,-2.5795,-2.5829,-2.583,-2.5889,-2.5897,-2.5888,-2.5906,-2.5892,-2.5906,-2.5912,-2.5915,-2.593,-2.5962,-2.5983,-2.6012,-2.6086,-2.6089,-2.6122,-2.6134,-2.6143,-2.6152,-2.6194,-2.6209,-2.6045,-2.6045,-2.6045,0,0,-2.5839,-2.5845,-2.5867,-2.5901,-2.591,-2.5947,-2.5893,-2.5934,-2.5961,-2.5918,-2.5973,-2.5976,-2.5991,-2.6058,-2.6087,-2.6063,-2.6198,-2.6152,-2.616,-2.6163,-2.6202,-2.6218,-2.6231,-2.605,-2.6049,-2.6049,0,0,-2.5938,-2.5945,-2.5996,-2.6007,-2.6022,-2.6016,-2.6028,-2.6037,-2.6037,-2.6091,-2.606,-2.6093,-2.6147,-2.616,-2.6174,-2.628,-2.6255,-2.629,-2.6351,-2.6392,-2.6405,-2.6416,-2.6456,-2.647,-2.6298,-2.6298,-2.6298,0,-2.599,-2.6044,-2.6025,-2.6068,-2.6084,-2.6047,-2.6099,-2.6111,-2.6135,-2.6148,-2.612,-2.6189,-2.6197,-2.6267,-2.6293,-2.6305,-2.6319,-2.6289,-2.6405,-2.6416,-2.6426,-2.6464,-2.6478,-2.6302,-2.6302,-2.6301,-2.6301,0,-2.6109,-2.6147,-2.6186,-2.6211,-2.6231,-2.6279,-2.6268,-2.6291,-2.6276,-2.6273,-2.633,-2.6338,-2.6369,-2.6384,-2.6369,-2.6453,-2.6438,-2.6408,-2.6359,-2.6446,-2.6481,-2.6495,-2.6308,-2.6307,-2.6306,-2.6305,0,0,-2.6246,-2.6261,-2.6275,-2.6287,-2.6302,-2.6331,-2.6378,-2.6408,-2.6429,-2.6447,-2.6487,-2.6534,-2.6507,-2.6523,-2.651,-2.6545,-2.6631,-2.6511,-2.6511,-2.6535,-2.6726,-2.675,-2.6766,-2.6614,-2.6617,-2.6619,-2.6725,0,-2.6346,-2.6425,-2.641,-2.6489,-2.6524,-2.6491,-2.6531,-2.6545,-2.6544,-2.6575,-2.6574,-2.6609,-2.6569,-2.6579,-2.6613,-2.6614,-2.667,-2.6605,-2.6653,-2.6654,-2.6651,-2.6784,-2.6809,-2.6909,-2.6739,-2.6741,-2.6743,0,-2.6472,-2.6496,-2.6578,-2.6589,-2.6603,-2.664,-2.6668,-2.6697,-2.6713,-2.671,-2.6729,-2.6709,-2.6756,-2.6707,-2.6773,-2.673,-2.6748,-2.6752,-2.6755,-2.676,-2.6705,-2.6794,-2.694,-2.6955,-2.6764,-2.6762,-2.676,0,-2.6566,-2.6618,-2.6675,-2.6686,-2.6699,-2.6727,-2.6734,-2.6747,-2.6767,-2.6791,-2.6804,-2.6833,-2.6849,-2.6873,-2.6863,-2.6827,-2.6932,-2.6881,-2.6932,-2.6932,-2.6956,-2.6955,-2.7108,-2.6966,-2.6966,-2.6965,-2.6965,0,-2.668,-2.6732,-2.6718,-2.6753,-2.681,-2.6793,-2.6851,-2.6854,-2.6866,-2.6902,-2.6874,-2.6908,-2.6892,-2.6925,-2.6917,-2.6974,-2.6982,-2.6981,-2.6979,-2.6985,-2.6985,-2.6997,-2.6991,-2.6969,-2.6968,-2.6968,-2.6967,0,-2.6795,-2.6787,-2.6847,-2.6855,-2.6859,-2.6901,-2.6909,-2.6942,-2.6939,-2.6985,-2.6995,-2.6991,-2.7029,-2.7021,-2.7062,-2.7057,-2.713,-2.7117,-2.7124,-2.7122,-2.7174,-2.717,-2.7342,-2.7364,-2.7206,-2.7208,-2.7209,0,-2.6868,-2.6908,-2.6921,-2.6943,-2.6952,-2.6988,-2.7008,-2.6993,-2.7015,-2.7038,-2.7069,-2.7104,-2.7132,-2.7195,-2.7196,-2.7228,-2.7218,-2.7276,-2.7223,-2.7228,-2.7221,-2.7219,-2.7224,-2.7287,-2.7289,-2.729,-2.7291,0,-2.7,-2.6995,-2.7025,-2.7055,-2.708,-2.7103,-2.7122,-2.7142,-2.7129,-2.7156,-2.7194,-2.7216,-2.7259,-2.7296,-2.7326,-2.7334,-2.7312,-2.7308,-2.7322,-2.7329,-2.7332,-2.7333,-2.7155,-2.7304,-2.7303,-2.7302,-2.7302,-2.7301,-2.7098,-2.7132,-2.7147,-2.7182,-2.7196,-2.7216,-2.7248,-2.725,-2.7282,-2.7316,-2.7305,-2.735,-2.7366,-2.7404,-2.7416,-2.7452,-2.743,-2.745,-2.7455,-2.7461,-2.7468,-2.7325,-2.7457,-2.7457,-2.7456,-2.7456,-2.7456,0,-2.723,-2.7238,-2.727,-2.73,-2.7328,-2.7304,-2.7325,-2.7351,-2.739,-2.7408,-2.7436,-2.7482,-2.7517,-2.7522,-2.7556,-2.7584,-2.7575,-2.7594,-2.7592,-2.7595,-2.7484,-2.747,-2.7601,-2.7601,-2.7601,-2.7601,-2.7601,-2.7601,-2.7302,-2.7359,-2.7356,-2.742,-2.7428,-2.7472,-2.7487,-2.7505,-2.7519,-2.7572,-2.7601,-2.7604,-2.7617,-2.7652,-2.7684,-2.7685,-2.7699,-2.7723,-2.7719,-2.7617,-2.7602,-2.7588,-2.7575,-2.7725,-2.7726,-2.7827,-2.7828,-2.7829]},{"header":{"parameterUnit":"m.s-1","parameterCategory":1,"la1":30.2991,"la2":30.254,"lo1":-89.0895,"lo2":-89.0444,"dy":0.0017,"dx":0.0017,"nx":28,"ny":28,"refTime":"2023-10-23T09:00:00:Z","depth":0,"parameterNumber":3,"parameterNumberName":"V-component_of_WINDS"},"data":[0,0,0,0,0,0,0,0,0,0,0,0,0,0,0,0,0,0,0,0,0,0,0,0,0,0,0,0,0,0,0,0,0,0,0,0,0,0,0,0,0,0,0,0,0,0,0,0,0,0,0,0,0,0,0,0,0,0,-0.9588,-0.9588,0,-0.9578,-0.9578,-0.9578,-0.9551,-0.955,-0.955,-0.9549,-0.954,-0.954,-0.954,0,0,0,0,0,0,0,0,0,0,0,0,0,-0.9582,-0.9582,-0.9588,-0.9588,-0.9588,-0.9578,-0.9578,-0.9578,-0.9551,-0.955,-0.955,-0.9549,-0.954,-0.954,-0.954,0,0,0,0,0,0,0,0,0,0,0,0,0,-0.958,-0.9582,-0.9588,-0.9573,-0.9572,-0.9578,-0.9578,-0.9578,-0.9551,-0.955,-0.9549,-0.9549,-0.954,-0.954,-0.954,-0.9561,0,0,-0.9542,-0.9542,0,0,0,0,0,0,0,0,-0.958,-0.958,-0.9575,-0.9574,-0.9572,-0.9565,-0.9573,-0.9572,-0.9551,-0.9559,-0.9549,-0.9548,-0.9549,-0.9549,-0.9549,-0.9561,-0.956,-0.9542,-0.9542,-0.9542,-0.9543,0,0,0,0,0,0,0,-0.958,-0.958,-0.9584,-0.9575,-0.9574,-0.9567,-0.9565,-0.9573,-0.9559,-0.9558,-0.9556,-0.9555,-0.9548,-0.9548,-0.9548,-0.956,-0.9542,-0.9542,-0.9543,-0.9543,-0.9588,-0.9589,0,0,0,0,0,0,-0.9582,-0.9581,-0.9584,-0.9584,-0.9574,-0.9567,-0.9566,-0.9568,-0.9559,-0.9557,-0.9556,-0.9554,-0.9548,-0.9548,-0.9548,-0.9571,-0.9542,-0.9543,-0.9543,-0.9587,-0.9588,-0.9589,0,0,0,0,0,0,-0.9582,-0.9583,-0.9585,-0.9582,-0.9581,-0.9568,-0.9571,-0.9569,-0.9569,-0.9557,-0.9555,-0.9559,-0.9547,-0.9547,-0.9558,-0.9571,-0.9543,-0.9543,-0.9586,-0.9587,-0.9589,-0.9619,0,0,0,0,0,0,-0.9582,-0.9583,-0.9591,-0.9582,-0.9582,-0.9595,-0.9572,-0.9569,-0.957,-0.9567,-0.956,-0.9557,-0.9547,-0.9557,-0.9558,-0.9571,-0.9544,-0.9585,-0.9587,-0.9588,-0.9617,-0.9621,-0.9625,0,0,0,0,0,-0.9582,-0.96,-0.9592,-0.9592,-0.9591,-0.9596,-0.9596,-0.9583,-0.9571,-0.9579,-0.9571,-0.9558,-0.9569,-0.9559,-0.956,-0.9572,-0.9584,-0.9586,-0.9588,-0.9615,-0.962,-0.9625,0,0,0,0,0,0,-0.9612,-0.9599,-0.9589,-0.9605,-0.9602,-0.9592,-0.9601,-0.9589,-0.959,-0.9587,-0.9571,-0.957,-0.9583,-0.9578,-0.9567,-0.9591,-0.9574,-0.9576,-0.9594,-0.9599,-0.9603,-0.9604,-0.9544,0,0,0,0,0,-0.962,-0.9625,-0.9613,-0.9628,-0.9627,-0.9614,-0.9616,-0.9606,-0.9602,-0.9601,-0.9594,-0.9591,-0.9594,-0.9596,-0.9598,-0.9615,-0.9613,-0.9624,-0.9628,-0.9632,-0.9634,-0.9643,-0.9648,-0.9596,-0.9596,-0.9596,0,0,-0.9637,-0.9631,-0.9635,-0.9634,-0.963,-0.9636,-0.9614,-0.962,-0.9624,-0.9602,-0.9612,-0.9607,-0.9602,-0.9616,-0.9622,-0.9613,-0.9648,-0.9635,-0.9637,-0.9638,-0.9646,-0.9651,-0.9655,-0.9597,-0.9597,-0.9597,0,0,-0.9672,-0.9667,-0.9679,-0.9676,-0.967,-0.9661,-0.9664,-0.9655,-0.9651,-0.966,-0.9644,-0.9648,-0.9653,-0.965,-0.9649,-0.9681,-0.9669,-0.9682,-0.9704,-0.9713,-0.9717,-0.972,-0.9732,-0.9736,-0.9684,-0.9685,-0.9685,0,-0.9694,-0.9702,-0.9687,-0.9694,-0.9694,-0.9674,-0.9685,-0.9683,-0.9678,-0.9679,-0.9668,-0.9674,-0.9669,-0.9682,-0.969,-0.969,-0.9693,-0.9684,-0.9717,-0.9721,-0.9724,-0.9735,-0.9739,-0.9686,-0.9686,-0.9686,-0.9686,0,-0.9729,-0.9735,-0.9745,-0.9741,-0.9741,-0.9751,-0.9737,-0.974,-0.973,-0.9722,-0.9731,-0.9725,-0.9725,-0.9727,-0.9717,-0.9738,-0.9733,-0.972,-0.9702,-0.9731,-0.9741,-0.9745,-0.9689,-0.9688,-0.9688,-0.9687,0,0,-0.9784,-0.977,-0.9774,-0.9772,-0.9764,-0.9767,-0.9776,-0.9775,-0.9778,-0.9775,-0.9782,-0.9786,-0.9774,-0.9773,-0.9762,-0.977,-0.9795,-0.9756,-0.9756,-0.9764,-0.9818,-0.9828,-0.9833,-0.9787,-0.9787,-0.9788,-0.9819,0,-0.9816,-0.983,-0.9816,-0.9833,-0.9837,-0.9817,-0.9824,-0.982,-0.9812,-0.9815,-0.9807,-0.981,-0.9794,-0.9793,-0.9799,-0.9791,-0.9806,-0.9788,-0.9793,-0.9793,-0.9795,-0.9839,-0.985,-0.9879,-0.9823,-0.9823,-0.9824,0,-0.9857,-0.9856,-0.9873,-0.9863,-0.9864,-0.9871,-0.9869,-0.9872,-0.9866,-0.986,-0.9858,-0.9845,-0.9852,-0.9834,-0.9844,-0.9832,-0.9833,-0.9829,-0.983,-0.983,-0.9811,-0.9841,-0.9888,-0.9893,-0.983,-0.9829,-0.9829,0,-0.9895,-0.9898,-0.9908,-0.9906,-0.9895,-0.99,-0.9896,-0.9889,-0.9889,-0.9888,-0.9888,-0.9887,-0.9886,-0.9886,-0.9873,-0.9861,-0.9884,-0.9865,-0.9879,-0.988,-0.9886,-0.9886,-0.9935,-0.9885,-0.9885,-0.9885,-0.9885,0,-0.9934,-0.9945,-0.9925,-0.9931,-0.9943,-0.9926,-0.9938,-0.9932,-0.9926,-0.993,-0.9912,-0.9917,-0.9899,-0.9902,-0.9891,-0.9901,-0.9901,-0.9896,-0.9893,-0.9898,-0.9899,-0.9899,-0.9897,-0.9886,-0.9886,-0.9886,-0.9886,0,-0.998,-0.9966,-0.9976,-0.9964,-0.9961,-0.997,-0.996,-0.9965,-0.9956,-0.9962,-0.9962,-0.9948,-0.995,-0.9936,-0.9936,-0.9929,-0.9944,-0.9937,-0.9946,-0.9944,-0.9959,-0.9958,-1.0011,-1.0017,-0.9963,-0.9963,-0.9964,0,-1.0006,-1.0014,-1.0002,-1.0004,-1.0,-1.0003,-1.0003,-0.9986,-0.9987,-0.9981,-0.9987,-0.9987,-0.9987,-0.9991,-0.998,-0.998,-0.9973,-0.9992,-0.9973,-0.9978,-0.9974,-0.9974,-0.9975,-0.9996,-0.9997,-0.9997,-0.9998,0,-1.0053,-1.0046,-1.0047,-1.0045,-1.0045,-1.0043,-1.004,-1.0042,-1.0024,-1.0026,-1.0028,-1.0027,-1.0026,-1.0027,-1.0024,-1.0019,-1.0006,-1.0003,-1.0007,-1.0012,-1.0017,-1.0015,-0.9957,-1.0002,-1.0002,-1.0002,-1.0001,-1.0001,-1.009,-1.0096,-1.0089,-1.009,-1.0085,-1.0082,-1.0087,-1.0077,-1.0078,-1.0076,-1.0066,-1.007,-1.0063,-1.0058,-1.0054,-1.0056,-1.0047,-1.0052,-1.0054,-1.0055,-1.0058,-1.0016,-1.0055,-1.0055,-1.0055,-1.0055,-1.0055,0,-1.0137,-1.0131,-1.0132,-1.0128,-1.0129,-1.0115,-1.011,-1.0112,-1.0115,-1.0109,-1.0109,-1.0111,-1.0111,-1.01,-1.0099,-1.0103,-1.0096,-1.0103,-1.0103,-1.0102,-1.0066,-1.0063,-1.0108,-1.0108,-1.0108,-1.0108,-1.0108,-1.0108,-1.0162,-1.0171,-1.0163,-1.017,-1.0163,-1.0166,-1.0165,-1.0162,-1.0157,-1.016,-1.016,-1.0152,-1.0144,-1.0142,-1.0142,-1.0138,-1.0139,-1.0148,-1.0143,-1.011,-1.0105,-1.01,-1.0097,-1.0148,-1.0148,-1.0179,-1.0179,-1.0179]}]]